SB KEPS @ AMSAT $ORB13157.O Orbital Elements 13157.OSCAR
HR AMSAT ORBITAL ELEMENTS FOR OSCAR SATELLITES FROM WA5QGD FORT WORTH,TX June 6, 2013 BID: ORB13157.O TO ALL RADIO AMATEURS BT
Satellite: AO-07 Catalog number: 07530 Epoch time: 13157.81504809 Element set: 699 Inclination: 101.4296 deg RA of node: 147.6978 deg Eccentricity: 0.0011450 Arg of perigee: 310.0343 deg Mean anomaly: 117.6632 deg Mean motion: 12.53596627 rev/day Decay rate: -5.3e-07 rev/day^2 Epoch rev: 76448 Checksum: 309
Satellite: FO-29 Catalog number: 24278 Epoch time: 13155.80108652 Element set: 133 Inclination: 098.5565 deg RA of node: 216.0248 deg Eccentricity: 0.0350594 Arg of perigee: 196.0763 deg Mean anomaly: 282.9532 deg Mean motion: 13.53001883 rev/day Decay rate: -3.3e-07 rev/day^2 Epoch rev: 82963 Checksum: 314
Satellite: SO-33 Catalog number: 25509 Epoch time: 13157.29928183 Element set: 511 Inclination: 031.4306 deg RA of node: 129.2661 deg Eccentricity: 0.0351188 Arg of perigee: 062.6235 deg Mean anomaly: 072.7990 deg Mean motion: 14.29081155 rev/day Decay rate: 1.97e-06 rev/day^2 Epoch rev: 76333 Checksum: 306
Satellite: RS-22 Catalog number: 27939 Epoch time: 13157.66005943 Element set: 476 Inclination: 097.7999 deg RA of node: 346.0595 deg Eccentricity: 0.0012274 Arg of perigee: 216.9129 deg Mean anomaly: 143.1227 deg Mean motion: 14.64466752 rev/day Decay rate: 5.33e-06 rev/day^2 Epoch rev: 51775 Checksum: 340
Satellite: VO-52 Catalog number: 28650 Epoch time: 13157.68142005 Element set: 442 Inclination: 097.5678 deg RA of node: 176.8232 deg Eccentricity: 0.0024377 Arg of perigee: 317.2263 deg Mean anomaly: 161.5632 deg Mean motion: 14.83895557 rev/day Decay rate: 6.57e-06 rev/day^2 Epoch rev: 43752 Checksum: 327
Satellite: HO-68 Catalog number: 36122 Epoch time: 13157.78897705 Element set: 615 Inclination: 100.3063 deg RA of node: 215.1038 deg Eccentricity: 0.0007603 Arg of perigee: 021.2575 deg Mean anomaly: 338.8857 deg Mean motion: 13.16304888 rev/day Decay rate: -4.4e-07 rev/day^2 Epoch rev: 16704 Checksum: 301
/EX SB KEPS @ AMSAT $ORB13157.D Orbital Elements 13157.MICROS
HR AMSAT ORBITAL ELEMENTS FOR THE MICROSATS FROM WA5QGD FORT WORTH,TX June 6, 2013 BID: ORB13157.D TO ALL RADIO AMATEURS BT
Satellite: UO-11 Catalog number: 14781 Epoch time: 13156.82391312 Element set: 198 Inclination: 097.9037 deg RA of node: 218.2984 deg Eccentricity: 0.0007751 Arg of perigee: 332.4255 deg Mean anomaly: 027.6545 deg Mean motion: 14.80902409 rev/day Decay rate: 2.80e-06 rev/day^2 Epoch rev: 57225 Checksum: 306
Satellite: AO-16 Catalog number: 20439 Epoch time: 13156.89925523 Element set: 764 Inclination: 098.4706 deg RA of node: 097.1884 deg Eccentricity: 0.0010977 Arg of perigee: 185.9202 deg Mean anomaly: 205.5167 deg Mean motion: 14.32177712 rev/day Decay rate: 4.5e-07 rev/day^2 Epoch rev: 22062 Checksum: 316
Satellite: LO-19 Catalog number: 20442 Epoch time: 13157.84788045 Element set: 698 Inclination: 098.4397 deg RA of node: 099.9337 deg Eccentricity: 0.0012230 Arg of perigee: 174.1930 deg Mean anomaly: 219.7274 deg Mean motion: 14.32389131 rev/day Decay rate: 4.5e-07 rev/day^2 Epoch rev: 22095 Checksum: 324
Satellite: AO-27 Catalog number: 22825 Epoch time: 13157.84089503 Element set: 401 Inclination: 098.6176 deg RA of node: 101.9751 deg Eccentricity: 0.0007463 Arg of perigee: 324.7912 deg Mean anomaly: 069.0735 deg Mean motion: 14.29566919 rev/day Decay rate: 4.2e-07 rev/day^2 Epoch rev: 2715 Checksum: 310
Satellite: IO-26 Catalog number: 22826 Epoch time: 13157.84264890 Element set: 158 Inclination: 098.6118 deg RA of node: 102.2656 deg Eccentricity: 0.0007949 Arg of perigee: 316.7364 deg Mean anomaly: 077.1185 deg Mean motion: 14.29851429 rev/day Decay rate: 5.1e-07 rev/day^2 Epoch rev: 2728 Checksum: 324
Satellite: GO-32 Catalog number: 25397 Epoch time: 13157.85073359 Element set: 89 Inclination: 098.4136 deg RA of node: 126.0585 deg Eccentricity: 0.0000964 Arg of perigee: 035.3798 deg Mean anomaly: 356.8140 deg Mean motion: 14.23343688 rev/day Decay rate: -2.0e-08 rev/day^2 Epoch rev: 77447 Checksum: 330
Satellite: NO-44 Catalog number: 26931 Epoch time: 13157.84289285 Element set: 344 Inclination: 067.0533 deg RA of node: 286.1736 deg Eccentricity: 0.0007560 Arg of perigee: 281.3500 deg Mean anomaly: 222.1389 deg Mean motion: 14.29929778 rev/day Decay rate: 5.1e-07 rev/day^2 Epoch rev: 60994 Checksum: 327
Satellite: SO-50 Catalog number: 27607 Epoch time: 13157.81168380 Element set: 83 Inclination: 064.5582 deg RA of node: 295.7225 deg Eccentricity: 0.0046371 Arg of perigee: 167.5233 deg Mean anomaly: 335.6611 deg Mean motion: 14.72950537 rev/day Decay rate: 4.03e-06 rev/day^2 Epoch rev: 56218 Checksum: 307
Satellite: CO-55 Catalog number: 27844 Epoch time: 13157.07324752 Element set: 665 Inclination: 098.7000 deg RA of node: 166.3078 deg Eccentricity: 0.0008440 Arg of perigee: 280.9850 deg Mean anomaly: 111.4092 deg Mean motion: 14.21223069 rev/day Decay rate: 1.13e-06 rev/day^2 Epoch rev: 51515 Checksum: 282
Satellite: CO-57 Catalog number: 27848 Epoch time: 13157.00136074 Element set: 610 Inclination: 098.7087 deg RA of node: 165.7436 deg Eccentricity: 0.0008379 Arg of perigee: 288.2140 deg Mean anomaly: 105.4830 deg Mean motion: 14.20948306 rev/day Decay rate: 9.6e-07 rev/day^2 Epoch rev: 51507 Checksum: 311
Satellite: AO-51 Catalog number: 28375 Epoch time: 13157.83015441 Element set: 575 Inclination: 098.2005 deg RA of node: 113.7045 deg Eccentricity: 0.0084247 Arg of perigee: 048.2172 deg Mean anomaly: 344.9514 deg Mean motion: 14.41122820 rev/day Decay rate: 1.30e-06 rev/day^2 Epoch rev: 46984 Checksum: 285
Satellite: CP3 Catalog number: 31129 Epoch time: 13156.96292787 Element set: 478 Inclination: 097.8966 deg RA of node: 150.2352 deg Eccentricity: 0.0101716 Arg of perigee: 102.3904 deg Mean anomaly: 292.4435 deg Mean motion: 14.53658175 rev/day Decay rate: 4.67e-06 rev/day^2 Epoch rev: 32536 Checksum: 321
Satellite: CO-65 Catalog number: 32785 Epoch time: 13157.73757131 Element set: 651 Inclination: 097.7522 deg RA of node: 215.5704 deg Eccentricity: 0.0013384 Arg of perigee: 346.9769 deg Mean anomaly: 160.6101 deg Mean motion: 14.83891335 rev/day Decay rate: 6.59e-06 rev/day^2 Epoch rev: 27632 Checksum: 328
Satellite: PRISM Catalog number: 33493 Epoch time: 13157.77780156 Element set: 875 Inclination: 098.2165 deg RA of node: 314.3657 deg Eccentricity: 0.0017292 Arg of perigee: 223.6159 deg Mean anomaly: 136.3682 deg Mean motion: 14.85987075 rev/day Decay rate: 2.998e-05 rev/day^2 Epoch rev: 23637 Checksum: 349
Satellite: SOHLA-1 Catalog number: 33496 Epoch time: 13156.91752463 Element set: 64 Inclination: 098.1344 deg RA of node: 272.9655 deg Eccentricity: 0.0006201 Arg of perigee: 009.7106 deg Mean anomaly: 128.7092 deg Mean motion: 14.70295542 rev/day Decay rate: 1.59e-06 rev/day^2 Epoch rev: 23421 Checksum: 291
Satellite: SO-67 Catalog number: 35870 Epoch time: 13157.75849321 Element set: 126 Inclination: 097.1925 deg RA of node: 186.8786 deg Eccentricity: 0.0002739 Arg of perigee: 044.2226 deg Mean anomaly: 081.8376 deg Mean motion: 15.27099991 rev/day Decay rate: 5.379e-05 rev/day^2 Epoch rev: 20666 Checksum: 357
Satellite: TISAT-1 Catalog number: 36799 Epoch time: 13157.79726674 Element set: 144 Inclination: 098.0338 deg RA of node: 242.4241 deg Eccentricity: 0.0015949 Arg of perigee: 101.3177 deg Mean anomaly: 258.9822 deg Mean motion: 14.83323782 rev/day Decay rate: 2.124e-05 rev/day^2 Epoch rev: 15703 Checksum: 318
Satellite: STUDSAT Catalog number: 36801 Epoch time: 13157.77854097 Element set: 640 Inclination: 098.0459 deg RA of node: 245.4501 deg Eccentricity: 0.0012679 Arg of perigee: 086.8185 deg Mean anomaly: 059.2231 deg Mean motion: 14.88358217 rev/day Decay rate: 3.669e-05 rev/day^2 Epoch rev: 15718 Checksum: 332
Satellite: ALMASAT-1 Catalog number: 38078 Epoch time: 13157.66767942 Element set: 328 Inclination: 069.4745 deg RA of node: 225.4425 deg Eccentricity: 0.0696372 Arg of perigee: 160.6851 deg Mean anomaly: 202.2071 deg Mean motion: 14.24605991 rev/day Decay rate: 2.8101e-04 rev/day^2 Epoch rev: 6774 Checksum: 322
Satellite: XATCOBEO Catalog number: 38082 Epoch time: 13157.69502318 Element set: 209 Inclination: 069.4720 deg RA of node: 201.7883 deg Eccentricity: 0.0576472 Arg of perigee: 147.8155 deg Mean anomaly: 332.7198 deg Mean motion: 14.55222122 rev/day Decay rate: 6.5013e-04 rev/day^2 Epoch rev: 6839 Checksum: 309
Satellite: SOMP Catalog number: 39135 Epoch time: 13157.61379411 Element set: 102 Inclination: 064.8777 deg RA of node: 241.7840 deg Eccentricity: 0.0014829 Arg of perigee: 208.6608 deg Mean anomaly: 151.3695 deg Mean motion: 15.00238187 rev/day Decay rate: 3.904e-05 rev/day^2 Epoch rev: 724 Checksum: 294
Satellite: CUBEBUG-1 Catalog number: 39153 Epoch time: 13157.83447284 Element set: 129 Inclination: 098.0739 deg RA of node: 233.5815 deg Eccentricity: 0.0019697 Arg of perigee: 115.4399 deg Mean anomaly: 244.8835 deg Mean motion: 14.76426792 rev/day Decay rate: 1.175e-05 rev/day^2 Epoch rev: 615 Checksum: 335
Satellite: ESTCUBE-1 Catalog number: 39161 Epoch time: 13157.74235440 Element set: 89 Inclination: 098.1288 deg RA of node: 236.0547 deg Eccentricity: 0.0010332 Arg of perigee: 140.0275 deg Mean anomaly: 220.1675 deg Mean motion: 14.68958505 rev/day Decay rate: 9.31e-06 rev/day^2 Epoch rev: 446 Checksum: 286
/EX SB KEPS @ AMSAT $ORB13157.W Orbital Elements 13157.WEATHER
HR AMSAT ORBITAL ELEMENTS FOR WEATHER SATELLITES FROM WA5QGD FORT WORTH,TX June 6, 2013 BID: ORB13157.W TO ALL RADIO AMATEURS BT
Satellite: NOAA-10 Catalog number: 16969 Epoch time: 13157.10922034 Element set: 380 Inclination: 098.5455 deg RA of node: 185.1893 deg Eccentricity: 0.0011015 Arg of perigee: 277.2648 deg Mean anomaly: 115.8694 deg Mean motion: 14.27643093 rev/day Decay rate: 2.2e-07 rev/day^2 Epoch rev: 39036 Checksum: 305
